COSMOS 917 DEB, 27883

Orbit data source: Space-Track

COSMOS 917 DEB, 27883 is space debris originally from a launch on Thu, 16 Jun 1977 UTC launched from the Plesetsk Missile And Space Complex (PKMTR). Debris objects in space refer to the collection of defunct objects orbiting the Earth. Examples of debris include non-operational satellites, rocket bodies, and fragments generated from explosions, collisions, or faulty payload assembly.

Loading next visibility...
Identifier
27883, 1977-047F
Orbit
Molniya
Country
Flag of CISCIS
Related business
Manufacturer
Unknown
Mission
Spacecraft
Bus & Motor
Unknown
Mass
Unknown
Launch date (UTC)
1977-06-16 (49 years ago)
Launch vehicle
Unknown
Launch site
Plesetsk Missile And Space Complex (PKMTR)
Object type
Payload
Rocket body
Debris
Shape & HBR
Unknown shape, 0.6 m
Radar Cross Section
Medium (>0.1 m² and <1 m²)

Expand to show TLE details & history
Last TLE update: 2 days ago

TLE from 2 days ago
0 COSMOS 917 DEB
1 27883U 77047F   26171.27293209  .00001985  00000-0  10515-2 0  9991
2 27883  60.1218 220.2214 7444739  55.4557 353.7966  2.02202979175465
Epoch: 2026-06-20T06:33Z
TLE epoch observation values (Epoch: 2026-06-20T06:33:01.332Z)
Latitude
-0.00006°
Longitude
-146.51211°
Altitude
1,876.647 km
Speed
9.028 km/s
True Right ascension
14h 40m 56s
True Declination
0° 00' 00"
Sunlit
Object was in daylight at epoch
Visualization orbit readout
Latitude
Unknown
Longitude
Unknown
Altitude
Unknown
Speed
Unknown
Apparent Right ascension
Unknown
Apparent Declination
Unknown
Sunlit
N/A
Visualization observer readout
Local Sidereal Time
23:07:51
Azimuth
Unknown
Elevation
Unknown
Doppler factor
Unknown
Orbital elements
Apogee altitude
39,703.7 km
Perigee altitude
371.813 km
Semi-major axis
26,415.894 km
Eccentricity
0.74447
Inclination
60.1218°
RAAN
220.2214°
Arg. of periapsis
55.4557°
True anomaly
304.89202°
Mean anomaly
353.7966°
Eccentric anomaly
337.41408°
Mean motion
0.50553 °/min
Orbital period
712.13 mins
BSTAR
0.0010515
Loading maneuver chart data...
Computing Atmospheric mass density...
Loading historical data...
Loading historical data...
Loading historical data...
Loading historical data...
Loading historical data...
Loading historical data...
Loading historical data...

Documentation

Showing up to 5 results
|